User: anonymous   Login
Location: Lachaise
(45.8833°N, 1.8500°E)
Time: 17:15:12
(UTC+00:00)
Language:

STARLINK-1293 - Orbit

View from above orbital plane
View from above orbital plane
View from above satellite
View from above satellite

Ground track
Ground track

The orbit data is extracted from the following two-line orbital elements,

1 45411C 20019BD  20228.47791490  .00004343  00000-0  29751-3 0  2288
2 45411  53.0099 259.5247 0001388  80.0854  51.6559 15.05567224    11
Epoch (UTC): 15 August 2020 11:28:11
Eccentricity: 0.0001388
inclination: 53.0099°
perigee height: 549 km
apogee height: 551 km
right ascension of ascending node: 259.5247°
argument of perigee: 80.0854°
revolutions per day: 15.05567224
mean anomaly at epoch: 51.6559°
orbit number at epoch: 1

The dashed part of the orbit path shows where the satellite is in the earth's shadow,  

DLR